KLM7511 EPKK-EHAM

Flight info

Callsign KLM7511
Flight time N/A
Altitude 33000
Route EPKK SID LUMVE L619 NUDRO T710 SUBIX Z20 SONUD P203 HLZ L980 RKN STAR EHAM
Aircraft B738/H-V/N

Departure

Time 2026-05-06 13:11
Airport Kraków John Paul II International Airport (EPKK)

Arrival

Time N/A
Airport Amsterdam Airport Schiphol (EHAM)
Time Latitude Longitude Altitude Speed Heading
2026-05-06 12:54 50.07698 19.80278 771 ft 0 kts 256°
2026-05-06 13:01 50.07703 19.80313 770 ft 4 kts 256°
2026-05-06 13:02 50.07709 19.80350 770 ft 0 kts 256°
2026-05-06 13:06 50.07711 19.80342 770 ft 0 kts 304°
2026-05-06 13:06 50.07729 19.80341 770 ft 5 kts
2026-05-06 13:06 50.07785 19.80352 770 ft 10 kts
2026-05-06 13:06 50.07839 19.80337 770 ft 0 kts 347°
2026-05-06 13:07 50.07853 19.80332 770 ft 1 kts 347°
2026-05-06 13:07 50.07867 19.80327 770 ft 2 kts 347°
2026-05-06 13:07 50.07878 19.80324 770 ft 0 kts 347°
2026-05-06 13:08 50.07880 19.80323 770 ft 0 kts 347°
2026-05-06 13:08 50.07909 19.80314 771 ft 12 kts 348°
2026-05-06 13:08 50.07992 19.80279 773 ft 11 kts 322°
2026-05-06 13:09 50.08003 19.80141 773 ft 15 kts 258°
2026-05-06 13:09 50.07977 19.79954 776 ft 18 kts 258°
2026-05-06 13:09 50.07968 19.79888 775 ft 0 kts 257°
2026-05-06 13:10 50.07904 19.79418 778 ft 97 kts 257°
2026-05-06 13:10 50.07698 19.77934 908 ft 172 kts 258°
2026-05-06 13:11 50.07439 19.76070 1772 ft 184 kts 258°
2026-05-06 13:11 50.07268 19.74827 2463 ft 184 kts 258°
2026-05-06 13:11 50.07658 19.80294 770 ft 0 kts 259°
2026-05-06 13:21 50.07660 19.80313 770 ft 4 kts 259°
2026-05-06 13:21 50.07666 19.80365 770 ft 2 kts 259°
2026-05-06 13:21 50.07667 19.80365 770 ft 0 kts 269°
2026-05-06 13:21 50.07671 19.80361 770 ft 1 kts 344°
2026-05-06 13:22 50.07699 19.80371 770 ft 7 kts 15°
2026-05-06 13:22 50.07760 19.80365 770 ft 11 kts 349°
2026-05-06 13:22 50.07823 19.80343 770 ft 6 kts 347°
2026-05-06 13:22 50.07838 19.80338 770 ft 0 kts 347°
2026-05-06 13:23 50.07853 19.80333 770 ft 10 kts 348°
2026-05-06 13:23 50.07980 19.80285 772 ft 19 kts 332°
2026-05-06 13:24 50.08002 19.80132 774 ft 12 kts 259°
2026-05-06 13:24 50.07988 19.80031 776 ft 6 kts 258°
2026-05-06 13:24 50.07980 19.79973 776 ft 8 kts 258°
2026-05-06 13:24 50.07971 19.79902 776 ft 1 kts 259°
2026-05-06 13:25 50.07945 19.79717 776 ft 60 kts 258°
2026-05-06 13:25 50.07776 19.78534 781 ft 156 kts 258°
2026-05-06 13:25 50.07516 19.76685 1422 ft 185 kts 257°
2026-05-06 13:25 50.07330 19.74701 2364 ft 191 kts 272°
2026-05-06 13:26 50.07679 19.72767 3381 ft 194 kts 295°
2026-05-06 13:26 50.08387 19.71039 4449 ft 181 kts 306°
2026-05-06 13:26 50.09112 19.69533 5172 ft 186 kts 308°
2026-05-06 13:26 50.09994 19.67782 5668 ft 220 kts 309°
2026-05-06 13:27 50.10896 19.65903 6677 ft 212 kts 306°
2026-05-06 13:27 50.11716 19.64170 7591 ft 196 kts 303°
2026-05-06 13:27 50.12471 19.62397 8076 ft 202 kts 306°
2026-05-06 13:27 50.13286 19.60576 8475 ft 211 kts 303°
2026-05-06 13:28 50.14123 19.58653 8943 ft 218 kts 305°
2026-05-06 13:28 50.14991 19.56732 9563 ft 216 kts 306°
2026-05-06 13:28 50.15848 19.54864 10213 ft 212 kts 306°
2026-05-06 13:28 50.16753 19.52937 11007 ft 227 kts 307°
2026-05-06 13:29 50.17668 19.51133 12458 ft 210 kts 310°
2026-05-06 13:29 50.18525 19.49572 13813 ft 189 kts 312°
2026-05-06 13:29 50.19444 19.48019 14391 ft 210 kts 314°
2026-05-06 13:29 50.20565 19.46243 14684 ft 246 kts 316°
2026-05-06 13:30 50.21789 19.44396 15775 ft 243 kts 317°
2026-05-06 13:30 50.22967 19.42707 16981 ft 227 kts 316°
2026-05-06 13:30 50.23942 19.41030 17367 ft 203 kts 309°
2026-05-06 13:30 50.24811 19.39302 17094 ft 203 kts 308°
2026-05-06 13:31 50.25648 19.37569 16918 ft 198 kts 307°
2026-05-06 13:31 50.26439 19.35855 16871 ft 197 kts 306°
2026-05-06 13:31 50.27289 19.34027 17311 ft 218 kts 306°
2026-05-06 13:31 50.28265 19.31999 17527 ft 251 kts 307°
2026-05-06 13:32 50.29342 19.29802 18313 ft 258 kts 307°
2026-05-06 13:32 50.30363 19.27747 19760 ft 233 kts 308°
2026-05-06 13:32 50.31308 19.25871 20844 ft 219 kts 308°
2026-05-06 13:32 50.32305 19.23914 21064 ft 247 kts 308°
2026-05-06 13:33 50.33458 19.21669 21188 ft 278 kts 309°
2026-05-06 13:33 50.34664 19.19337 22225 ft 270 kts 309°
2026-05-06 13:33 50.35870 19.17024 22692 ft 286 kts 309°
2026-05-06 13:33 50.36815 19.15245 23322 ft 284 kts 310°
2026-05-06 13:34 50.37666 19.13672 24342 ft 264 kts 310°
2026-05-06 13:34 50.38760 19.11684 25595 ft 239 kts 311°
2026-05-06 13:34 50.39886 19.09677 25905 ft 256 kts 311°
2026-05-06 13:34 50.41157 19.07440 25665 ft 294 kts 312°